Hoffman, NC

1:45 AM EDT on September 27, 2016 (GMT -0400)
Mackall Army Air Field

Weather History for KHFF - November, 2014

Change the Weather History Date:

Saturday, November 8, 2014

  Actual Average Record
Temperature  
Mean Temperature 45 °F -  
Max Temperature 59 °F 66 °F 80 °F (2000)
Min Temperature 31 °F 43 °F 26 °F (2012)
Degree Days  
Heating Degree Days 20    
Moisture  
Dew Point 38 °F    
Average Humidity 75    
Maximum Humidity 98    
Minimum Humidity 44    
Precipitation  
Precipitation 0.00 in - - ()
Sea Level Pressure  
Sea Level Pressure 30.05 in    
Wind  
Wind Speed 3 mph (South)    
Max Wind Speed 7 mph    
Max Gust Speed 15 mph    
Visibility 10 miles    
Events      
Averages and records for this station are not official NWS values.
T = Trace of Precipitation, MM = Missing Value Source: NWS Daily Summary

Daily Weather History Graph

Daily Weather History Graph

Search for Another Location

Airport or City:

Trip Planner

Search our weather history database for the weather conditions in past years. The results will help you decide how hot, cold, wet, or windy it might be!

Date:

Astronomy

Nov. 08, 2014 Rise Set
Actual Time 6:45 AM EST 5:17 PM EST
Civil Twilight 6:19 AM EST 5:43 PM EST
Nautical Twilight 5:48 AM EST 6:14 PM EST
Astronomical Twilight 5:19 AM EST 6:43 PM EST
Moon 6:58 PM EST (11/8) 8:19 AM EST (11/8)
Length of Visible Light 11h 24m
Length of Day
10h 31m
Waning Gibbous, 96% of the Moon is Illuminated
Nov 8
Waning Gibbous
Nov 14
Last Quarter
Nov 22
New
Nov 29
First Quarter
Dec 6
Full

Hourly Weather History & Observations

Time (EST) Temp. Windchill Dew Point Humidity Pressure Visibility Wind Dir Wind Speed Gust Speed Precip Events Conditions
12:56 AM 34.3 °F - 33.6 °F 97% 30.09 in 10.0 mi NW 2.3 mph - N/A   Clear
1:56 AM 34.0 °F - 32.4 °F 94% 30.10 in 10.0 mi NW 2.3 mph - N/A   Clear
2:56 AM 32.5 °F 29.3 °F 32.0 °F 98% 30.11 in 10.0 mi NNW 3.5 mph - N/A   Clear
3:56 AM 33.1 °F - 32.0 °F 96% 30.10 in 10.0 mi NNE 1.2 mph - N/A   Clear
4:56 AM 32.2 °F - 31.6 °F 98% 30.09 in 10.0 mi Variable 1.2 mph - N/A   Clear
5:56 AM 31.6 °F - 30.9 °F 97% 30.11 in 10.0 mi NW 2.3 mph - N/A   Clear
6:56 AM 31.5 °F - 30.4 °F 96% 30.12 in 10.0 mi NNW 2.3 mph - N/A   Clear
7:56 AM 38.5 °F - 36.0 °F 91% 30.12 in 10.0 mi NE 2.3 mph - N/A   Clear
8:56 AM 44.6 °F 41.4 °F 34.9 °F 69% 30.12 in 10.0 mi East 5.8 mph - N/A   Clear
9:56 AM 49.5 °F - 34.2 °F 56% 30.12 in 10.0 mi ESE 6.9 mph - N/A   Clear
10:56 AM 51.3 °F - 35.2 °F 54% 30.10 in 10.0 mi South 5.8 mph - N/A   Clear
11:40 AM 51.8 °F - 35.6 °F 54% 30.07 in 10.0 mi Variable 4.6 mph - N/A   Clear
11:56 AM 52.9 °F - 36.3 °F 53% 30.07 in 10.0 mi SE 2.3 mph - N/A   Clear
12:48 PM 55.4 °F - 37.4 °F 51% 30.04 in 10.0 mi Variable 2.3 mph - N/A   Clear
12:56 PM 55.2 °F - 37.2 °F 51% 30.04 in 10.0 mi SW 3.5 mph - N/A   Clear
1:31 PM 57.2 °F - 37.4 °F 48% 30.01 in 10.0 mi South 4.6 mph 15.0 mph N/A   Clear
1:56 PM 58.5 °F - 37.6 °F 46% 30.02 in 10.0 mi SSW 5.8 mph - N/A   Clear
2:42 PM 59.0 °F - 37.4 °F 45% 29.99 in 10.0 mi South 5.8 mph - N/A   Clear
2:56 PM 59.2 °F - 37.4 °F 44% 30.00 in 10.0 mi SSW 5.8 mph - N/A   Clear
3:56 PM 58.1 °F - 38.1 °F 47% 29.99 in 10.0 mi SSW 4.6 mph - N/A   Clear
4:56 PM 54.5 °F - 44.8 °F 70% 30.00 in 10.0 mi SW 3.5 mph - N/A   Clear
5:56 PM 50.2 °F - 46.4 °F 87% 30.01 in 10.0 mi South 2.3 mph - N/A   Mostly Cloudy
6:56 PM 48.9 °F - 46.2 °F 90% 30.02 in 10.0 mi SSE 1.2 mph - N/A   Mostly Cloudy
7:56 PM 48.4 °F - 46.0 °F 92% 30.02 in 10.0 mi SE 1.2 mph - N/A   Partly Cloudy
8:56 PM 48.2 °F - 47.1 °F 96% 30.02 in 10.0 mi South 1.2 mph - N/A   Mostly Cloudy
9:56 PM 47.5 °F - 46.4 °F 96% 30.02 in 10.0 mi SSE 3.5 mph - N/A   Mostly Cloudy
10:56 PM 47.7 °F - 45.7 °F 93% 30.01 in 10.0 mi East 1.2 mph - N/A   Mostly Cloudy
11:56 PM 46.9 °F - 46.0 °F 97% 30.01 in 10.0 mi WSW 1.2 mph - N/A   Mostly Cloudy